Location: ??
(34.9170°N, 135.5016°E)
Time: 12:29:07
(UTC+00:00)

PSLV R/B - Pass Details

Date: 29 October 2020
Orbit: 567 x 599 km, 98.2° (Epoch: 27 November)

Event Time Altitude Azimuth Distance (km) Brightness Sun altitude
Rises 20:20:27 0° 166° (SSE) 2,819 7.8 -12.1°
Reaches altitude 10° 20:22:36 10° 165° (SSE) 1,924 6.9 -11.7°
Maximum altitude 20:26:47 87° 79° (E) 604 4.0 -10.9°
Drops below altitude 10° 20:31:01 10° 348° (NNW) 1,944 6.4 -10.0°
Sets 20:33:12 0° 348° (NNW) 2,850 7.2 -9.6°
